COSMOS 252 DEB *, 3713

Orbit data source: Space-Track

COSMOS 252 DEB *, 3713 is space debris in LEO originally from a launch on Fri, 01 Nov 1968 UTC launched from the Tyuratam Missile And Space Complex (TTMTR). Debris objects in space refer to the collection of defunct objects orbiting the Earth. Examples of debris include non-operational satellites, rocket bodies, and fragments generated from explosions, collisions, or faulty payload assembly.

Loading next visibility...
Identifier
3713, 1968-097AQ
Orbit
LEO
Country
Flag of CISCIS
Related business
Manufacturer
Unknown
Mission
Spacecraft
Bus & Motor
Unknown
Mass
Unknown
Launch date (UTC)
1968-11-01 (57 years ago)
Launch vehicle
Unknown
Launch site
Tyuratam Missile And Space Complex (TTMTR)
Object type
Payload
Rocket body
Debris
Shape & HBR
Unknown shape, 0.1 m
Radar Cross Section
Small (<0.1 m²)

Expand to show TLE details & history
Last TLE update: 2 days ago

TLE from 2 days ago
0 COSMOS 252 DEB *
1 03713U 68097AQ  25286.51321066  .00001596  00000-0  17132-2 0  9998
2 03713  62.2180  99.3763 0628352 308.7264  45.9136 13.12780513656857
Epoch: 2025-10-13T12:19Z
TLE epoch observation values (Epoch: 2025-10-13T12:19:01.401Z)
Latitude
0.00003°
Longitude
-107.69443°
Altitude
898.739 km
Speed
7.555 km/s
True Right ascension
06h 37m 30s
True Declination
0° 00' 00"
Sunlit
Object was in daylight at epoch
Visualization orbit readout
Latitude
Unknown
Longitude
Unknown
Altitude
Unknown
Speed
Unknown
Apparent Right ascension
Unknown
Apparent Declination
Unknown
Sunlit
N/A
Visualization observer readout
Local Sidereal Time
13:33:55
Azimuth
Unknown
Elevation
Unknown
Doppler factor
Unknown
Orbital elements
Apogee altitude
1,688.301 km
Perigee altitude
734.52 km
Semi-major axis
7,589.548 km
Eccentricity
0.06284
Inclination
62.218°
RAAN
99.3763°
Arg. of periapsis
308.7264°
True anomaly
51.37546°
Mean anomaly
45.9136°
Eccentric anomaly
48.61476°
Mean motion
3.28261 °/min
Orbital period
109.67 mins
BSTAR
0.0017132
Loading maneuver chart data...
Computing Atmospheric mass density...

Documentation

Showing up to 5 results
|